| time (UTC) | temp F | wind direction | speed knots | gust knots | rain 1hr in | rain 24hr in | rain mn in | humidity % | barometer mb |
| 20260508192600 | 68 | 194 | 0.9 | 2.6 | 0.00 | 0.00 | 0.00 | 40 | 1011.2 |
| 20260508192058 | 68 | 143 | 2.6 | 6.1 | 0.00 | 0.00 | 0.00 | 41 | 1011.2 |
| 20260508191554 | 68 | 192 | 3.5 | 5.2 | 0.00 | 0.00 | 0.00 | 40 | 1011.3 |
| 20260508191051 | 68 | 270 | 1.7 | 3.5 | 0.00 | 0.00 | 0.00 | 39 | 1011.4 |
| 20260508190548 | 69 | 179 | 4.3 | 6.1 | 0.00 | 0.00 | 0.00 | 40 | 1011.6 |
| 20260508190045 | 69 | 216 | 0.9 | 7.0 | 0.00 | 0.00 | 0.00 | 38 | 1011.4 |
| 20260508185542 | 70 | 150 | 3.5 | 3.5 | 0.00 | 0.00 | 0.00 | 39 | 1011.4 |
| 20260508185039 | 70 | 173 | 2.6 | 3.5 | 0.00 | 0.00 | 0.00 | 38 | 1011.7 |
| 20260508184537 | 70 | 182 | 3.5 | 5.2 | 0.00 | 0.00 | 0.00 | 39 | 1011.8 |
| 20260508184033 | 70 | 202 | 0.9 | 5.2 | 0.00 | 0.00 | 0.00 | 38 | 1011.7 |
| 20260508183530 | 69 | 162 | 2.6 | 5.2 | 0.00 | 0.00 | 0.00 | 39 | 1012.0 |
| 20260508183026 | 69 | 209 | 2.6 | 7.8 | 0.00 | 0.00 | 0.00 | 39 | 1012.1 |
| 20260508182523 | 69 | 186 | 1.7 | 6.1 | 0.00 | 0.00 | 0.00 | 39 | 1012.1 |
| 20260508182019 | 69 | 198 | 1.7 | 5.2 | 0.00 | 0.00 | 0.00 | 42 | 1012.1 |
| 20260508181514 | 69 | 181 | 0.9 | 2.6 | 0.00 | 0.00 | 0.00 | 40 | 1012.2 |
| 20260508181013 | 68 | 190 | 2.6 | 6.1 | 0.00 | 0.00 | 0.00 | 39 | 1012.4 |
| 20260508180509 | 68 | 207 | 2.6 | 6.1 | 0.00 | 0.00 | 0.00 | 39 | 1012.4 |
| 20260508180005 | 68 | 217 | 1.7 | 6.1 | 0.00 | 0.00 | 0.00 | 39 | 1012.7 |
| 20260508175502 | 69 | 311 | 1.7 | 3.5 | 0.00 | 0.00 | 0.00 | 41 | 1012.7 |
| 20260508174959 | 69 | 183 | 3.5 | 6.1 | 0.00 | 0.00 | 0.00 | 43 | 1012.5 |
| 20260508174457 | 69 | 164 | 5.2 | 8.7 | 0.00 | 0.00 | 0.00 | 42 | 1012.7 |
| 20260508173953 | 68 | 197 | 0.9 | 5.2 | 0.00 | 0.00 | 0.00 | 43 | 1012.7 |
| 20260508173451 | 67 | 189 | 2.6 | 6.1 | 0.00 | 0.00 | 0.00 | 41 | 1012.9 |
| 20260508172946 | 67 | 202 | 3.5 | 5.2 | 0.00 | 0.00 | 0.00 | 40 | 1013.2 |
| 20260508172444 | 67 | 264 | 0.0 | 7.0 | 0.00 | 0.00 | 0.00 | 45 | 1013.3 |
| 20260508171940 | 67 | 190 | 0.9 | 2.6 | 0.00 | 0.00 | 0.00 | 45 | 1013.2 |
| 20260508171436 | 66 | 99 | 0.0 | 2.6 | 0.00 | 0.00 | 0.00 | 49 | 1013.2 |
| 20260508170933 | 66 | 195 | 2.6 | 7.8 | 0.00 | 0.00 | 0.00 | 46 | 1013.4 |
| 20260508170431 | 66 | 186 | 2.6 | 7.8 | 0.00 | 0.00 | 0.00 | 45 | 1013.4 |
| 20260508165927 | 66 | 169 | 0.0 | 6.1 | 0.00 | 0.00 | 0.00 | 47 | 1013.5 |
| 20260508165426 | 66 | 197 | 1.7 | 2.6 | 0.00 | 0.00 | 0.00 | 45 | 1013.5 |
| 20260508164921 | 66 | 198 | 1.7 | 7.8 | 0.00 | 0.00 | 0.00 | 45 | 1013.6 |
| 20260508164418 | 66 | 176 | 3.5 | 7.0 | 0.00 | 0.00 | 0.00 | 45 | 1013.9 |
| 20260508163915 | 67 | 174 | 1.7 | 7.8 | 0.00 | 0.00 | 0.00 | 45 | 1013.9 |
| 20260508163413 | 66 | 225 | 2.6 | 6.1 | 0.00 | 0.00 | 0.00 | 45 | 1014.0 |
| 20260508162908 | 67 | 189 | 0.9 | 6.1 | 0.00 | 0.00 | 0.00 | 45 | 1014.0 |
| 20260508162406 | 66 | 164 | 3.5 | 5.2 | 0.00 | 0.00 | 0.00 | 46 | 1014.2 |
| 20260508161903 | 66 | 192 | 2.6 | 12.2 | 0.00 | 0.00 | 0.00 | 45 | 1014.1 |
| 20260508161400 | 67 | 176 | 5.2 | 7.0 | 0.00 | 0.00 | 0.00 | 45 | 1014.0 |
| 20260508160857 | 66 | 171 | 3.5 | 5.2 | 0.00 | 0.00 | 0.00 | 46 | 1014.3 |
| 20260508160356 | 66 | 182 | 4.3 | 7.0 | 0.00 | 0.00 | 0.00 | 47 | 1014.1 |
| 20260508155852 | 66 | 231 | 1.7 | 3.5 | 0.00 | 0.00 | 0.00 | 48 | 1014.1 |
| 20260508155349 | 66 | 236 | 1.7 | 2.6 | 0.00 | 0.00 | 0.00 | 48 | 1014.3 |
| 20260508154846 | 66 | 201 | 0.9 | 3.5 | 0.00 | 0.00 | 0.00 | 49 | 1014.3 |
| 20260508154344 | 65 | 280 | 0.9 | 2.6 | 0.00 | 0.00 | 0.00 | 49 | 1014.6 |
| 20260508153840 | 64 | 183 | 1.7 | 2.6 | 0.00 | 0.00 | 0.00 | 49 | 1014.4 |
| 20260508153337 | 64 | 267 | 3.5 | 6.1 | 0.00 | 0.00 | 0.00 | 50 | 1014.6 |
| 20260508152833 | 64 | 134 | 3.5 | 7.0 | 0.00 | 0.00 | 0.00 | 49 | 1014.7 |
| 20260508152330 | 63 | 243 | 3.5 | 5.2 | 0.00 | 0.00 | 0.00 | 49 | 1014.6 |
| 20260508151826 | 63 | 200 | 1.7 | 2.6 | 0.00 | 0.00 | 0.00 | 50 | 1014.8 |
| 20260508151323 | 63 | 161 | 1.7 | 7.8 | 0.00 | 0.00 | 0.00 | 49 | 1014.8 |
| 20260508150819 | 63 | 146 | 4.3 | 6.1 | 0.00 | 0.00 | 0.00 | 49 | 1014.6 |
| 20260508150316 | 62 | 139 | 2.6 | 5.2 | 0.00 | 0.00 | 0.00 | 52 | 1014.8 |
| 20260508145812 | 62 | 305 | 1.7 | 3.5 | 0.00 | 0.00 | 0.00 | 52 | 1014.8 |
| 20260508145309 | 61 | 152 | 3.5 | 6.1 | 0.00 | 0.00 | 0.00 | 52 | 1015.0 |
| 20260508144806 | 61 | 196 | 0.9 | 5.2 | 0.00 | 0.00 | 0.00 | 51 | 1015.0 |
| 20260508144304 | 61 | 210 | 3.5 | 6.1 | 0.00 | 0.00 | 0.00 | 50 | 1015.0 |
| 20260508143801 | 60 | 195 | 1.7 | 5.2 | 0.00 | 0.00 | 0.00 | 52 | 1015.1 |
| 20260508143258 | 60 | 205 | 4.3 | 7.8 | 0.00 | 0.00 | 0.00 | 51 | 1014.9 |
| 20260508142754 | 59 | 291 | 0.9 | 1.7 | 0.00 | 0.00 | 0.00 | 53 | 1014.9 |
| 20260508142251 | 59 | 195 | 1.7 | 5.2 | 0.00 | 0.00 | 0.00 | 52 | 1015.1 |
| 20260508141748 | 59 | 199 | 3.5 | 6.1 | 0.00 | 0.00 | 0.00 | 52 | 1015.1 |
| 20260508141245 | 58 | 194 | 3.5 | 7.0 | 0.00 | 0.00 | 0.00 | 52 | 1015.3 |
| 20260508140742 | 58 | 166 | 0.9 | 5.2 | 0.00 | 0.00 | 0.00 | 52 | 1015.1 |
| 20260508140239 | 58 | 342 | 2.6 | 7.0 | 0.00 | 0.00 | 0.00 | 53 | 1015.4 |
| 20260508135735 | 58 | 163 | 1.7 | 5.2 | 0.00 | 0.00 | 0.00 | 52 | 1015.3 |
| 20260508135231 | 58 | 192 | 1.7 | 2.6 | 0.00 | 0.00 | 0.00 | 53 | 1015.2 |
| 20260508134727 | 58 | 252 | 1.7 | 7.8 | 0.00 | 0.00 | 0.00 | 52 | 1015.2 |
| 20260508134224 | 58 | 180 | 1.7 | 3.5 | 0.00 | 0.00 | 0.00 | 52 | 1015.4 |
| 20260508133721 | 57 | 241 | 2.6 | 5.2 | 0.00 | 0.00 | 0.00 | 51 | 1015.3 |
| 20260508133219 | 57 | 219 | 0.9 | 5.2 | 0.00 | 0.00 | 0.00 | 54 | 1015.1 |
| 20260508132716 | 57 | 164 | 1.7 | 3.5 | 0.00 | 0.00 | 0.00 | 54 | 1015.2 |
| 20260508132214 | 55 | 165 | 4.3 | 6.1 | 0.00 | 0.00 | 0.00 | 54 | 1015.2 |
| 20260508131709 | 55 | 209 | 1.7 | 3.5 | 0.00 | 0.00 | 0.00 | 55 | 1015.3 |
| 20260508131206 | 55 | 163 | 2.6 | 3.5 | 0.00 | 0.00 | 0.00 | 54 | 1015.2 |
| 20260508130702 | 55 | 185 | 2.6 | 6.1 | 0.00 | 0.00 | 0.00 | 55 | 1015.2 |
| 20260508130159 | 55 | 146 | 0.9 | 2.6 | 0.00 | 0.00 | 0.00 | 55 | 1015.1 |
| 20260508125655 | 56 | 189 | 1.7 | 5.2 | 0.00 | 0.00 | 0.00 | 54 | 1015.0 |
| 20260508125151 | 56 | 192 | 0.9 | 3.5 | 0.00 | 0.00 | 0.00 | 53 | 1015.1 |
| 20260508124650 | 55 | 188 | 0.9 | 3.5 | 0.00 | 0.00 | 0.00 | 54 | 1015.2 |
| 20260508124146 | 55 | 175 | 1.7 | 6.1 | 0.00 | 0.00 | 0.00 | 52 | 1015.2 |
| 20260508123645 | 54 | 168 | 3.5 | 3.5 | 0.00 | 0.00 | 0.00 | 55 | 1015.2 |
| 20260508123142 | 54 | 209 | 4.3 | 6.1 | 0.00 | 0.00 | 0.00 | 56 | 1014.8 |
| 20260508122638 | 53 | 188 | 0.9 | 3.5 | 0.00 | 0.00 | 0.00 | 56 | 1015.0 |
| 20260508122135 | 53 | 184 | 1.7 | 3.5 | 0.00 | 0.00 | 0.00 | 57 | 1015.0 |
| 20260508121633 | 53 | 160 | 1.7 | 7.0 | 0.00 | 0.00 | 0.00 | 57 | 1014.9 |
| 20260508121131 | 52 | 168 | 1.7 | 3.5 | 0.00 | 0.00 | 0.00 | 59 | 1015.2 |
| 20260508120628 | 52 | 191 | 0.9 | 1.7 | 0.00 | 0.00 | 0.00 | 60 | 1015.0 |
| 20260508120127 | 51 | 174 | 0.0 | 0.0 | 0.00 | 0.00 | 0.00 | 61 | 1015.2 |
| 20260508115624 | 51 | 168 | 1.7 | 2.6 | 0.00 | 0.00 | 0.00 | 62 | 1014.8 |
| 20260508115120 | 50 | 178 | 1.7 | 2.6 | 0.00 | 0.00 | 0.00 | 62 | 1014.9 |
| 20260508114618 | 50 | 204 | 1.7 | 2.6 | 0.00 | 0.00 | 0.00 | 62 | 1014.9 |
| 20260508114113 | 50 | 190 | 1.7 | 2.6 | 0.00 | 0.00 | 0.00 | 62 | 1015.0 |
| 20260508113611 | 51 | 161 | 0.0 | 0.9 | 0.00 | 0.00 | 0.00 | 62 | 1014.9 |
| 20260508113109 | 51 | 191 | 0.0 | 1.7 | 0.00 | 0.00 | 0.00 | 61 | 1014.8 |
| 20260508112605 | 51 | 149 | 0.9 | 1.7 | 0.00 | 0.00 | 0.00 | 61 | 1014.6 |
| 20260508112102 | 51 | 175 | 0.9 | 2.6 | 0.00 | 0.00 | 0.00 | 60 | 1014.7 |
| 20260508111559 | 51 | 169 | 1.7 | 2.6 | 0.00 | 0.00 | 0.00 | 60 | 1014.8 |
| 20260508111056 | 51 | 156 | 2.6 | 3.5 | 0.00 | 0.00 | 0.00 | 59 | 1014.9 |
| 20260508110554 | 51 | 160 | 0.9 | 1.7 | 0.00 | 0.00 | 0.00 | 59 | 1014.8 |
| 20260508110049 | 51 | 158 | 0.9 | 0.9 | 0.00 | 0.00 | 0.00 | 59 | 1014.6 |
| 20260508105544 | 51 | 177 | 0.9 | 1.7 | 0.00 | 0.00 | 0.00 | 58 | 1014.5 |
| 20260508105042 | 51 | 190 | 0.9 | 3.5 | 0.00 | 0.00 | 0.00 | 58 | 1014.5 |
| 20260508104540 | 51 | 164 | 0.9 | 1.7 | 0.00 | 0.00 | 0.00 | 59 | 1014.5 |
| 20260508104036 | 51 | 175 | 1.7 | 1.7 | 0.00 | 0.00 | 0.00 | 59 | 1014.5 |
| 20260508103533 | 51 | 155 | 0.0 | 0.9 | 0.00 | 0.00 | 0.00 | 60 | 1014.7 |
| 20260508103031 | 51 | 238 | 0.0 | 0.0 | 0.00 | 0.00 | 0.00 | 59 | 1014.7 |
| 20260508102528 | 51 | 197 | 0.9 | 1.7 | 0.00 | 0.00 | 0.00 | 58 | 1014.7 |
| 20260508102026 | 51 | 170 | 0.9 | 0.9 | 0.00 | 0.00 | 0.00 | 58 | 1014.6 |
| 20260508101523 | 51 | 167 | 0.0 | 2.6 | 0.00 | 0.00 | 0.00 | 58 | 1014.6 |
| 20260508101020 | 51 | 180 | 1.7 | 2.6 | 0.00 | 0.00 | 0.00 | 59 | 1014.5 |
| 20260508100518 | 51 | 170 | 0.9 | 2.6 | 0.00 | 0.00 | 0.00 | 59 | 1014.4 |
| 20260508100015 | 51 | 247 | 0.0 | 1.7 | 0.00 | 0.00 | 0.00 | 59 | 1014.5 |
| 20260508095512 | 51 | 172 | 0.9 | 1.7 | 0.00 | 0.00 | 0.00 | 59 | 1014.5 |
| 20260508095009 | 51 | 192 | 0.9 | 1.7 | 0.00 | 0.00 | 0.00 | 59 | 1014.6 |
| 20260508094506 | 51 | 183 | 0.9 | 1.7 | 0.00 | 0.00 | 0.00 | 60 | 1014.6 |
| 20260508094003 | 51 | 185 | 0.0 | 1.7 | 0.00 | 0.00 | 0.00 | 59 | 1014.6 |
| 20260508093500 | 51 | 178 | 0.0 | 0.9 | 0.00 | 0.00 | 0.00 | 60 | 1014.6 |
| 20260508092957 | 51 | 288 | 0.9 | 0.9 | 0.00 | 0.00 | 0.00 | 59 | 1014.7 |
| 20260508092455 | 50 | 212 | 1.7 | 2.6 | 0.00 | 0.00 | 0.00 | 60 | 1014.5 |
| 20260508091954 | 50 | 202 | 0.9 | 1.7 | 0.00 | 0.00 | 0.00 | 60 | 1014.6 |
| 20260508091450 | 50 | 171 | 0.0 | 1.7 | 0.00 | 0.00 | 0.00 | 60 | 1014.6 |
| 20260508090947 | 50 | 202 | 0.0 | 0.0 | 0.00 | 0.00 | 0.00 | 61 | 1014.6 |
| 20260508090445 | 50 | 174 | 0.9 | 1.7 | 0.00 | 0.00 | 0.00 | 61 | 1014.6 |
| 20260508085941 | 50 | 173 | 0.0 | 0.9 | 0.00 | 0.00 | 0.00 | 61 | 1014.8 |
| 20260508085438 | 50 | 177 | 0.9 | 0.9 | 0.00 | 0.00 | 0.00 | 62 | 1014.7 |
| 20260508084935 | 50 | 174 | 0.0 | 0.9 | 0.00 | 0.00 | 0.00 | 62 | 1014.6 |
| 20260508084431 | 50 | 190 | 0.0 | 1.7 | 0.00 | 0.00 | 0.00 | 62 | 1014.6 |
| 20260508083929 | 49 | 198 | 0.0 | 1.7 | 0.00 | 0.00 | 0.00 | 62 | 1014.3 |
| 20260508083426 | 49 | 207 | 1.7 | 1.7 | 0.00 | 0.00 | 0.00 | 63 | 1014.6 |
| 20260508082926 | 49 | 192 | 0.0 | 2.6 | 0.00 | 0.00 | 0.00 | 62 | 1014.5 |
| 20260508082424 | 49 | 158 | 0.0 | 1.7 | 0.00 | 0.00 | 0.00 | 63 | 1014.5 |
| 20260508081922 | 49 | 197 | 1.7 | 2.6 | 0.00 | 0.00 | 0.00 | 63 | 1014.4 |
| 20260508081418 | 49 | 190 | 1.7 | 1.7 | 0.00 | 0.00 | 0.00 | 63 | 1014.4 |
| 20260508080914 | 49 | 170 | 0.9 | 1.7 | 0.00 | 0.00 | 0.00 | 63 | 1014.5 |
| 20260508080413 | 49 | 185 | 0.0 | 0.9 | 0.00 | 0.00 | 0.00 | 63 | 1014.5 |
| 20260508075909 | 49 | 188 | 0.9 | 1.7 | 0.00 | 0.00 | 0.00 | 63 | 1014.4 |
| 20260508075406 | 49 | 189 | 0.0 | 0.9 | 0.00 | 0.00 | 0.00 | 64 | 1014.4 |
| 20260508074904 | 49 | 168 | 0.0 | 0.0 | 0.00 | 0.00 | 0.00 | 63 | 1014.6 |
| 20260508074401 | 49 | 186 | 1.7 | 2.6 | 0.00 | 0.00 | 0.00 | 62 | 1014.6 |
| 20260508073858 | 49 | 188 | 0.9 | 1.7 | 0.00 | 0.00 | 0.00 | 63 | 1014.4 |
| 20260508073356 | 49 | 200 | 0.0 | 1.7 | 0.00 | 0.00 | 0.00 | 62 | 1014.5 |
| 20260508072852 | 49 | 173 | 0.9 | 0.9 | 0.00 | 0.00 | 0.00 | 63 | 1014.5 |
| 20260508072348 | 49 | 156 | 0.9 | 1.7 | 0.00 | 0.00 | 0.00 | 63 | 1014.4 |
| 20260508071846 | 49 | 184 | 0.0 | 1.7 | 0.00 | 0.00 | 0.00 | 62 | 1014.5 |
| 20260508071344 | 49 | 179 | 0.0 | 0.9 | 0.00 | 0.00 | 0.00 | 62 | 1014.7 |
| 20260508070841 | 49 | 175 | 0.0 | 0.9 | 0.00 | 0.00 | 0.00 | 62 | 1014.4 |
| 20260508070339 | 49 | 174 | 0.0 | 0.9 | 0.00 | 0.00 | 0.00 | 62 | 1014.7 |
| 20260508065837 | 49 | 164 | 0.9 | 1.7 | 0.00 | 0.00 | 0.00 | 62 | 1014.6 |
| 20260508065335 | 50 | 180 | 0.9 | 0.9 | 0.00 | 0.00 | 0.00 | 60 | 1014.6 |
| 20260508064833 | 50 | 187 | 0.9 | 1.7 | 0.00 | 0.00 | 0.00 | 61 | 1014.7 |
| 20260508064330 | 50 | 179 | 0.0 | 1.7 | 0.00 | 0.00 | 0.00 | 59 | 1014.7 |
| 20260508063827 | 50 | 164 | 1.7 | 2.6 | 0.00 | 0.00 | 0.00 | 60 | 1014.8 |
| 20260508063325 | 50 | 169 | 1.7 | 1.7 | 0.00 | 0.00 | 0.00 | 60 | 1014.9 |
| 20260508062822 | 50 | 179 | 1.7 | 1.7 | 0.00 | 0.00 | 0.00 | 60 | 1015.1 |
| 20260508062320 | 50 | 162 | 0.9 | 0.9 | 0.00 | 0.00 | 0.00 | 59 | 1015.1 |
| 20260508061816 | 50 | 187 | 0.9 | 1.7 | 0.00 | 0.00 | 0.00 | 59 | 1015.1 |
| 20260508061314 | 50 | 199 | 0.9 | 1.7 | 0.00 | 0.00 | 0.00 | 59 | 1015.1 |
| 20260508060810 | 50 | 183 | 0.0 | 2.6 | 0.00 | 0.00 | 0.00 | 58 | 1015.1 |
| 20260508060308 | 50 | 182 | 0.9 | 0.9 | 0.00 | 0.00 | 0.00 | 57 | 1015.1 |
| 20260508055808 | 50 | 176 | 0.9 | 1.7 | 0.00 | 0.00 | 0.00 | 58 | 1015.2 |
| 20260508055307 | 50 | 192 | 0.9 | 1.7 | 0.00 | 0.00 | 0.00 | 57 | 1015.0 |
| 20260508054803 | 51 | 161 | 0.9 | 2.6 | 0.00 | 0.00 | 0.00 | 57 | 1015.1 |
| 20260508054300 | 51 | 193 | 1.7 | 5.2 | 0.00 | 0.00 | 0.00 | 56 | 1015.1 |
| 20260508053757 | 50 | 197 | 0.9 | 2.6 | 0.00 | 0.00 | 0.00 | 56 | 1015.1 |
| 20260508053254 | 50 | 164 | 0.9 | 1.7 | 0.00 | 0.00 | 0.00 | 57 | 1015.1 |
| 20260508052752 | 51 | 193 | 0.9 | 1.7 | 0.00 | 0.00 | 0.00 | 56 | 1015.2 |
| 20260508052249 | 51 | 151 | 1.7 | 2.6 | 0.00 | 0.00 | 0.00 | 56 | 1015.2 |
| 20260508051745 | 51 | 181 | 1.7 | 1.7 | 0.00 | 0.00 | 0.00 | 55 | 1015.1 |
| 20260508051240 | 51 | 172 | 0.0 | 0.9 | 0.00 | 0.00 | 0.00 | 56 | 1015.1 |
| 20260508050737 | 51 | 157 | 1.7 | 3.5 | 0.00 | 0.00 | 0.00 | 55 | 1015.0 |
| 20260508050234 | 51 | 182 | 0.9 | 1.7 | 0.00 | 0.00 | 0.00 | 54 | 1015.1 |
| 20260508045729 | 51 | 190 | 0.0 | 1.7 | 0.00 | 0.00 | 0.00 | 55 | 1014.8 |
| 20260508045228 | 51 | 185 | 0.9 | 1.7 | 0.00 | 0.00 | 0.00 | 54 | 1014.9 |
| 20260508044725 | 51 | 154 | 0.9 | 2.6 | 0.00 | 0.00 | 0.00 | 54 | 1015.0 |
| 20260508044222 | 51 | 169 | 0.9 | 0.9 | 0.00 | 0.00 | 0.00 | 55 | 1015.0 |
| 20260508043717 | 51 | 156 | 0.9 | 0.9 | 0.00 | 0.00 | 0.00 | 55 | 1015.2 |
| 20260508043216 | 50 | 167 | 0.0 | 0.9 | 0.00 | 0.00 | 0.00 | 56 | 1015.0 |
| 20260508042712 | 50 | 167 | 0.9 | 0.9 | 0.00 | 0.00 | 0.00 | 57 | 1014.9 |
| 20260508042209 | 50 | 149 | 0.0 | 0.0 | 0.00 | 0.00 | 0.00 | 58 | 1015.0 |
| 20260508041705 | 50 | 148 | 0.9 | 1.7 | 0.00 | 0.00 | 0.00 | 59 | 1015.1 |
| 20260508041203 | 50 | 161 | 0.9 | 0.9 | 0.00 | 0.00 | 0.00 | 58 | 1014.8 |
| 20260508040659 | 50 | 161 | 0.9 | 0.9 | 0.00 | 0.00 | 0.00 | 57 | 1015.0 |
| 20260508040157 | 50 | 163 | 0.0 | 0.9 | 0.00 | 0.00 | 0.00 | 58 | 1014.9 |
| 20260508035654 | 51 | 162 | 0.0 | 1.7 | 0.00 | 0.00 | 0.00 | 56 | 1015.0 |
| 20260508035151 | 51 | 154 | 0.9 | 1.7 | 0.00 | 0.00 | 0.00 | 56 | 1014.7 |
| 20260508034647 | 51 | 159 | 0.9 | 1.7 | 0.00 | 0.00 | 0.00 | 56 | 1014.7 |
| 20260508034144 | 51 | 164 | 0.9 | 1.7 | 0.00 | 0.00 | 0.00 | 56 | 1014.6 |
| 20260508033642 | 51 | 174 | 0.9 | 1.7 | 0.00 | 0.00 | 0.00 | 56 | 1014.9 |
| 20260508033141 | 51 | 178 | 1.7 | 1.7 | 0.00 | 0.00 | 0.00 | 56 | 1014.9 |
| 20260508032636 | 51 | 173 | 0.9 | 1.7 | 0.00 | 0.00 | 0.00 | 56 | 1015.1 |
| 20260508032134 | 51 | 173 | 0.9 | 0.9 | 0.00 | 0.00 | 0.00 | 58 | 1015.2 |
| 20260508031631 | 51 | 167 | 0.9 | 1.7 | 0.00 | 0.00 | 0.00 | 57 | 1014.8 |
| 20260508031127 | 50 | 172 | 0.9 | 1.7 | 0.00 | 0.00 | 0.00 | 58 | 1015.0 |
| 20260508030623 | 50 | 164 | 0.0 | 0.9 | 0.00 | 0.00 | 0.00 | 58 | 1014.9 |
| 20260508030121 | 50 | 165 | 0.9 | 1.7 | 0.00 | 0.00 | 0.00 | 59 | 1014.8 |
| 20260508025617 | 50 | 164 | 0.0 | 0.0 | 0.00 | 0.00 | 0.00 | 59 | 1014.8 |
| 20260508025115 | 50 | 164 | 0.9 | 1.7 | 0.00 | 0.00 | 0.00 | 60 | 1014.8 |
| 20260508024610 | 50 | 163 | 0.9 | 1.7 | 0.00 | 0.00 | 0.00 | 58 | 1015.0 |
| 20260508024108 | 51 | 163 | 0.9 | 1.7 | 0.00 | 0.00 | 0.00 | 57 | 1014.9 |
| 20260508023604 | 51 | 179 | 1.7 | 1.7 | 0.00 | 0.00 | 0.00 | 58 | 1015.0 |
| 20260508023101 | 51 | 168 | 0.0 | 0.0 | 0.00 | 0.00 | 0.00 | 59 | 1014.9 |
| 20260508022557 | 51 | 161 | 0.0 | 0.0 | 0.00 | 0.00 | 0.00 | 57 | 1014.9 |
| 20260508022054 | 51 | 158 | 0.0 | 0.9 | 0.00 | 0.00 | 0.00 | 57 | 1014.8 |
| 20260508021550 | 50 | 163 | 0.9 | 1.7 | 0.00 | 0.00 | 0.00 | 59 | 1014.8 |
| 20260508021046 | 50 | 179 | 0.0 | 0.0 | 0.00 | 0.00 | 0.00 | 58 | 1014.9 |
| 20260508020544 | 51 | 180 | 0.0 | 0.0 | 0.00 | 0.00 | 0.00 | 58 | 1014.9 |
| 20260508020041 | 50 | 180 | 0.0 | 0.0 | 0.00 | 0.00 | 0.00 | 59 | 1014.9 |
| 20260508015539 | 50 | 180 | 0.0 | 0.0 | 0.00 | 0.00 | 0.00 | 63 | 1014.6 |
| 20260508015036 | 50 | 180 | 0.0 | 0.0 | 0.00 | 0.00 | 0.00 | 61 | 1014.8 |
| 20260508014532 | 49 | 180 | 0.0 | 0.0 | 0.00 | 0.00 | 0.00 | 63 | 1014.7 |
| 20260508014028 | 49 | 180 | 0.0 | 0.0 | 0.00 | 0.00 | 0.00 | 64 | 1014.7 |
| 20260508013524 | 49 | 180 | 0.0 | 0.0 | 0.00 | 0.00 | 0.00 | 66 | 1014.8 |
| 20260508013021 | 49 | 180 | 0.0 | 0.0 | 0.00 | 0.00 | 0.00 | 64 | 1014.7 |
| 20260508012519 | 50 | 180 | 0.0 | 0.0 | 0.00 | 0.00 | 0.00 | 65 | 1014.8 |
| 20260508012016 | 50 | 203 | 0.0 | 0.0 | 0.00 | 0.00 | 0.00 | 64 | 1014.7 |
| 20260508011514 | 50 | 203 | 0.0 | 0.0 | 0.00 | 0.00 | 0.00 | 62 | 1014.6 |
| 20260508011011 | 50 | 203 | 0.0 | 0.0 | 0.00 | 0.00 | 0.00 | 61 | 1014.6 |
| 20260508010508 | 51 | 203 | 0.0 | 0.0 | 0.00 | 0.00 | 0.00 | 59 | 1014.6 |
| 20260508010006 | 51 | 203 | 0.0 | 0.0 | 0.00 | 0.00 | 0.00 | 59 | 1014.5 |
| 20260508005502 | 52 | 203 | 0.0 | 0.0 | 0.00 | 0.00 | 0.00 | 57 | 1014.7 |
| 20260508004959 | 52 | 203 | 0.0 | 0.0 | 0.00 | 0.00 | 0.00 | 58 | 1014.8 |
| 20260508004454 | 52 | 204 | 0.0 | 0.0 | 0.00 | 0.00 | 0.00 | 57 | 1014.6 |
| 20260508003952 | 52 | 203 | 0.0 | 0.0 | 0.00 | 0.00 | 0.00 | 55 | 1014.5 |
| 20260508003448 | 53 | 203 | 0.0 | 0.0 | 0.00 | 0.00 | 0.00 | 54 | 1014.7 |
| 20260508002945 | 53 | 203 | 0.0 | 0.0 | 0.00 | 0.00 | 0.00 | 54 | 1014.4 |
| 20260508002442 | 54 | 203 | 0.0 | 0.0 | 0.00 | 0.00 | 0.00 | 53 | 1014.4 |
| 20260508001938 | 54 | 203 | 0.0 | 0.0 | 0.00 | 0.00 | 0.00 | 53 | 1014.4 |
| 20260508001434 | 55 | 204 | 0.0 | 0.0 | 0.00 | 0.00 | 0.00 | 50 | 1014.4 |
| 20260508000931 | 56 | 204 | 0.0 | 0.0 | 0.00 | 0.00 | 0.00 | 49 | 1014.5 |
| 20260508000427 | 57 | 204 | 0.0 | 0.0 | 0.00 | 0.00 | 0.00 | 44 | 1014.5 |
| 20260507235924 | 58 | 288 | 0.0 | 0.0 | 0.00 | 0.00 | 0.00 | 41 | 1014.6 |
| 20260507235421 | 58 | 289 | 0.0 | 0.0 | 0.00 | 0.00 | 0.00 | 41 | 1014.4 |
| 20260507234918 | 58 | 359 | 0.0 | 0.0 | 0.00 | 0.00 | 0.00 | 41 | 1014.5 |
| 20260507234415 | 58 | 349 | 0.0 | 0.0 | 0.00 | 0.00 | 0.00 | 42 | 1014.4 |
| 20260507233911 | 59 | 322 | 0.0 | 0.9 | 0.00 | 0.00 | 0.00 | 39 | 1014.3 |
| 20260507233408 | 59 | 260 | 0.0 | 0.9 | 0.00 | 0.00 | 0.00 | 38 | 1014.3 |
| 20260507232907 | 59 | 325 | 0.0 | 0.9 | 0.00 | 0.00 | 0.00 | 41 | 1014.3 |
| 20260507232403 | 59 | 309 | 0.9 | 1.7 | 0.00 | 0.00 | 0.00 | 38 | 1014.2 |
| 20260507231900 | 59 | 2 | 1.7 | 2.6 | 0.00 | 0.00 | 0.00 | 40 | 1014.4 |
| 20260507231357 | 59 | 191 | 0.0 | 0.9 | 0.00 | 0.00 | 0.00 | 40 | 1014.3 |
| 20260507230853 | 59 | 285 | 0.0 | 0.9 | 0.00 | 0.00 | 0.00 | 40 | 1014.3 |
| 20260507230351 | 59 | 296 | 0.0 | 1.7 | 0.00 | 0.00 | 0.00 | 42 | 1014.4 |
| 20260507225850 | 59 | 13 | 0.0 | 1.7 | 0.00 | 0.00 | 0.00 | 39 | 1014.2 |
| 20260507225347 | 59 | 349 | 0.9 | 1.7 | 0.00 | 0.00 | 0.00 | 41 | 1014.3 |
| 20260507224843 | 60 | 20 | 0.9 | 1.7 | 0.00 | 0.00 | 0.00 | 40 | 1014.4 |
| 20260507224340 | 60 | 338 | 1.7 | 1.7 | 0.00 | 0.00 | 0.00 | 39 | 1014.2 |
| 20260507223836 | 59 | 299 | 0.9 | 1.7 | 0.00 | 0.00 | 0.00 | 38 | 1014.2 |
| 20260507223332 | 59 | 11 | 1.7 | 2.6 | 0.00 | 0.00 | 0.00 | 37 | 1014.3 |
| 20260507222829 | 59 | 343 | 1.7 | 5.2 | 0.00 | 0.00 | 0.00 | 36 | 1014.5 |
| 20260507222326 | 60 | 2 | 1.7 | 2.6 | 0.00 | 0.00 | 0.00 | 37 | 1014.3 |
| 20260507221823 | 60 | 341 | 0.9 | 3.5 | 0.00 | 0.00 | 0.00 | 39 | 1014.4 |
| 20260507221319 | 61 | 11 | 2.6 | 3.5 | 0.00 | 0.00 | 0.00 | 38 | 1014.3 |
| 20260507220815 | 60 | 151 | 0.0 | 2.6 | 0.00 | 0.00 | 0.00 | 40 | 1014.2 |
| 20260507220314 | 60 | 303 | 1.7 | 2.6 | 0.00 | 0.00 | 0.00 | 38 | 1014.4 |
| 20260507215809 | 61 | 176 | 1.7 | 1.7 | 0.00 | 0.00 | 0.00 | 37 | 1014.5 |
| 20260507215307 | 61 | 317 | 1.7 | 3.5 | 0.00 | 0.00 | 0.00 | 38 | 1014.5 |
| 20260507214804 | 61 | 135 | 0.9 | 2.6 | 0.00 | 0.00 | 0.00 | 39 | 1014.7 |
| 20260507214301 | 60 | 22 | 0.9 | 1.7 | 0.00 | 0.00 | 0.00 | 37 | 1014.6 |
| 20260507213756 | 60 | 287 | 1.7 | 2.6 | 0.00 | 0.00 | 0.00 | 37 | 1014.5 |
| 20260507213253 | 60 | 35 | 0.9 | 2.6 | 0.00 | 0.00 | 0.00 | 40 | 1014.6 |
| 20260507212750 | 60 | 32 | 0.0 | 1.7 | 0.00 | 0.00 | 0.00 | 38 | 1014.6 |
| 20260507212246 | 59 | 358 | 1.7 | 6.1 | 0.00 | 0.00 | 0.00 | 41 | 1014.8 |
| 20260507211743 | 60 | 331 | 2.6 | 6.1 | 0.00 | 0.00 | 0.00 | 38 | 1014.7 |
| 20260507211239 | 61 | 31 | 1.7 | 1.7 | 0.00 | 0.00 | 0.00 | 39 | 1014.6 |
| 20260507210736 | 60 | 1 | 3.5 | 3.5 | 0.00 | 0.00 | 0.00 | 37 | 1014.7 |
| 20260507210233 | 62 | 337 | 2.6 | 3.5 | 0.00 | 0.00 | 0.00 | 37 | 1014.4 |
| 20260507205730 | 62 | 12 | 3.5 | 3.5 | 0.00 | 0.00 | 0.00 | 36 | 1014.6 |
| 20260507205227 | 62 | 239 | 0.9 | 1.7 | 0.00 | 0.00 | 0.00 | 38 | 1014.7 |
| 20260507204723 | 61 | 305 | 1.7 | 3.5 | 0.00 | 0.00 | 0.00 | 39 | 1014.5 |
| 20260507204221 | 62 | 41 | 1.7 | 2.6 | 0.00 | 0.00 | 0.00 | 36 | 1014.5 |
| 20260507203718 | 61 | 277 | 0.9 | 3.5 | 0.00 | 0.00 | 0.00 | 38 | 1014.6 |
| 20260507203216 | 61 | 334 | 2.6 | 3.5 | 0.00 | 0.00 | 0.00 | 35 | 1014.4 |
| 20260507202711 | 60 | 49 | 1.7 | 5.2 | 0.00 | 0.00 | 0.00 | 37 | 1014.5 |
| 20260507202208 | 60 | 359 | 0.9 | 2.6 | 0.00 | 0.00 | 0.00 | 36 | 1014.6 |
| 20260507201702 | 60 | 128 | 1.7 | 2.6 | 0.00 | 0.00 | 0.00 | 38 | 1014.5 |
| 20260507201200 | 60 | 306 | 2.6 | 6.1 | 0.00 | 0.00 | 0.00 | 40 | 1014.5 |
| 20260507200656 | 60 | 7 | 1.7 | 6.1 | 0.00 | 0.00 | 0.00 | 36 | 1014.4 |
| 20260507200152 | 60 | 17 | 1.7 | 5.2 | 0.00 | 0.00 | 0.00 | 37 | 1014.7 |
| 20260507195649 | 60 | 308 | 2.6 | 7.0 | 0.00 | 0.00 | 0.00 | 39 | 1014.7 |
| 20260507195146 | 60 | 300 | 2.6 | 3.5 | 0.00 | 0.00 | 0.00 | 38 | 1014.6 |
| 20260507194643 | 60 | 337 | 2.6 | 5.2 | 0.00 | 0.00 | 0.00 | 36 | 1014.7 |
| 20260507194138 | 59 | 359 | 1.7 | 6.1 | 0.00 | 0.00 | 0.00 | 39 | 1014.8 |
| 20260507193635 | 60 | 22 | 0.9 | 7.0 | 0.00 | 0.00 | 0.00 | 40 | 1014.8 |
| 20260507193133 | 60 | 0 | 2.6 | 5.2 | 0.00 | 0.00 | 0.00 | 39 | 1014.6 |